Year,Month,Day,Hour,Minute,Value (Times are PST for insolation in W/m^2)
2012,08,23,00,00,0.00
2012,08,23,00,01,0.00
2012,08,23,00,02,0.00
2012,08,23,00,03,0.00
2012,08,23,00,04,0.00
2012,08,23,00,05,0.00
2012,08,23,00,06,0.00
2012,08,23,00,07,0.00
2012,08,23,00,08,0.00
2012,08,23,00,09,0.00
2012,08,23,00,10,0.00
2012,08,23,00,11,0.00
2012,08,23,00,12,0.00
2012,08,23,00,13,0.00
2012,08,23,00,14,0.00
2012,08,23,00,15,0.00
2012,08,23,00,16,0.00
2012,08,23,00,17,0.00
2012,08,23,00,18,0.00
2012,08,23,00,19,0.00
2012,08,23,00,20,0.00
2012,08,23,00,21,0.00
2012,08,23,00,22,0.00
2012,08,23,00,23,0.00
2012,08,23,00,24,0.00
2012,08,23,00,25,0.00
2012,08,23,00,26,0.00
2012,08,23,00,27,0.00
2012,08,23,00,28,0.00
2012,08,23,00,29,0.00
2012,08,23,00,30,0.00
2012,08,23,00,31,0.00
2012,08,23,00,32,0.00
2012,08,23,00,33,0.00
2012,08,23,00,34,0.00
2012,08,23,00,35,0.00
2012,08,23,00,36,0.00
2012,08,23,00,37,0.00
2012,08,23,00,38,0.00
2012,08,23,00,39,0.00
2012,08,23,00,40,0.00
2012,08,23,00,41,0.00
2012,08,23,00,42,0.00
2012,08,23,00,43,0.00
2012,08,23,00,44,0.00
2012,08,23,00,45,0.00
2012,08,23,00,46,0.00
2012,08,23,00,47,0.00
2012,08,23,00,48,0.00
2012,08,23,00,49,0.00
2012,08,23,00,50,0.00
2012,08,23,00,51,0.00
2012,08,23,00,52,0.00
2012,08,23,00,53,0.00
2012,08,23,00,54,0.00
2012,08,23,00,55,0.00
2012,08,23,00,56,0.00
2012,08,23,00,57,0.00
2012,08,23,00,58,0.00
2012,08,23,00,59,0.00
2012,08,23,01,00,0.00
2012,08,23,01,01,0.00
2012,08,23,01,02,0.00
2012,08,23,01,03,0.00
2012,08,23,01,04,0.00
2012,08,23,01,05,0.00
2012,08,23,01,06,0.00
2012,08,23,01,07,0.00
2012,08,23,01,08,0.00
2012,08,23,01,09,0.00
2012,08,23,01,10,0.00
2012,08,23,01,11,0.00
2012,08,23,01,12,0.00
2012,08,23,01,13,0.00
2012,08,23,01,14,0.00
2012,08,23,01,15,0.00
2012,08,23,01,16,0.00
2012,08,23,01,17,0.00
2012,08,23,01,18,0.00
2012,08,23,01,19,0.00
2012,08,23,01,20,0.00
2012,08,23,01,21,0.00
2012,08,23,01,22,0.00
2012,08,23,01,23,0.00
2012,08,23,01,24,0.00
2012,08,23,01,25,0.00
2012,08,23,01,26,0.00
2012,08,23,01,27,0.00
2012,08,23,01,28,0.00
2012,08,23,01,29,0.00
2012,08,23,01,30,0.00
2012,08,23,01,31,0.00
2012,08,23,01,32,0.00
2012,08,23,01,33,0.00
2012,08,23,01,34,0.00
2012,08,23,01,35,0.00
2012,08,23,01,36,0.00
2012,08,23,01,37,0.00
2012,08,23,01,38,0.00
2012,08,23,01,39,0.00
2012,08,23,01,40,0.00
2012,08,23,01,41,0.00
2012,08,23,01,42,0.00
2012,08,23,01,43,0.00
2012,08,23,01,44,0.00
2012,08,23,01,45,0.00
2012,08,23,01,46,0.00
2012,08,23,01,47,0.00
2012,08,23,01,48,0.00
2012,08,23,01,49,0.00
2012,08,23,01,50,0.00
2012,08,23,01,51,0.00
2012,08,23,01,52,0.00
2012,08,23,01,53,0.00
2012,08,23,01,54,0.00
2012,08,23,01,55,0.00
2012,08,23,01,56,0.00
2012,08,23,01,57,0.00
2012,08,23,01,58,0.00
2012,08,23,01,59,0.00
2012,08,23,02,00,0.00
2012,08,23,02,01,0.00
2012,08,23,02,02,0.00
2012,08,23,02,03,0.00
2012,08,23,02,04,0.00
2012,08,23,02,05,0.00
2012,08,23,02,06,0.00
2012,08,23,02,07,0.00
2012,08,23,02,08,0.00
2012,08,23,02,09,0.00
2012,08,23,02,10,0.00
2012,08,23,02,11,0.00
2012,08,23,02,12,0.00
2012,08,23,02,13,0.00
2012,08,23,02,14,0.00
2012,08,23,02,15,0.00
2012,08,23,02,16,0.00
2012,08,23,02,17,0.00
2012,08,23,02,18,0.00
2012,08,23,02,19,0.00
2012,08,23,02,20,0.00
2012,08,23,02,21,0.00
2012,08,23,02,22,0.00
2012,08,23,02,23,0.00
2012,08,23,02,24,0.00
2012,08,23,02,25,0.00
2012,08,23,02,26,0.00
2012,08,23,02,27,0.00
2012,08,23,02,28,0.00
2012,08,23,02,29,0.00
2012,08,23,02,30,0.00
2012,08,23,02,31,0.00
2012,08,23,02,32,0.00
2012,08,23,02,33,0.00
2012,08,23,02,34,0.00
2012,08,23,02,35,0.00
2012,08,23,02,36,0.00
2012,08,23,02,37,0.00
2012,08,23,02,38,0.00
2012,08,23,02,39,0.00
2012,08,23,02,40,0.00
2012,08,23,02,41,0.00
2012,08,23,02,42,0.00
2012,08,23,02,43,0.00
2012,08,23,02,44,0.00
2012,08,23,02,45,0.00
2012,08,23,02,46,0.00
2012,08,23,02,47,0.00
2012,08,23,02,48,0.00
2012,08,23,02,49,0.00
2012,08,23,02,50,0.00
2012,08,23,02,51,0.00
2012,08,23,02,52,0.00
2012,08,23,02,53,0.00
2012,08,23,02,54,0.00
2012,08,23,02,55,0.00
2012,08,23,02,56,0.00
2012,08,23,02,57,0.00
2012,08,23,02,58,0.00
2012,08,23,02,59,0.00
2012,08,23,03,00,0.00
2012,08,23,03,01,0.00
2012,08,23,03,02,0.00
2012,08,23,03,03,0.00
2012,08,23,03,04,0.00
2012,08,23,03,05,0.00
2012,08,23,03,06,0.00
2012,08,23,03,07,0.00
2012,08,23,03,08,0.00
2012,08,23,03,09,0.00
2012,08,23,03,10,0.00
2012,08,23,03,11,0.00
2012,08,23,03,12,0.00
2012,08,23,03,13,0.00
2012,08,23,03,14,0.00
2012,08,23,03,15,0.00
2012,08,23,03,16,0.00
2012,08,23,03,17,0.00
2012,08,23,03,18,0.00
2012,08,23,03,19,0.00
2012,08,23,03,20,0.00
2012,08,23,03,21,0.00
2012,08,23,03,22,0.00
2012,08,23,03,23,0.00
2012,08,23,03,24,0.00
2012,08,23,03,25,0.00
2012,08,23,03,26,0.00
2012,08,23,03,27,0.00
2012,08,23,03,28,0.00
2012,08,23,03,29,0.00
2012,08,23,03,30,0.00
2012,08,23,03,31,0.00
2012,08,23,03,32,0.00
2012,08,23,03,33,0.00
2012,08,23,03,34,0.00
2012,08,23,03,35,0.00
2012,08,23,03,36,0.00
2012,08,23,03,37,0.00
2012,08,23,03,38,0.00
2012,08,23,03,39,0.00
2012,08,23,03,40,0.00
2012,08,23,03,41,0.00
2012,08,23,03,42,0.00
2012,08,23,03,43,0.00
2012,08,23,03,44,0.00
2012,08,23,03,45,0.00
2012,08,23,03,46,0.00
2012,08,23,03,47,0.00
2012,08,23,03,48,0.00
2012,08,23,03,49,0.00
2012,08,23,03,50,0.00
2012,08,23,03,51,0.00
2012,08,23,03,52,0.00
2012,08,23,03,53,0.00
2012,08,23,03,54,0.00
2012,08,23,03,55,0.00
2012,08,23,03,56,0.00
2012,08,23,03,57,0.00
2012,08,23,03,58,0.00
2012,08,23,03,59,0.00
2012,08,23,04,00,0.00
2012,08,23,04,01,0.00
2012,08,23,04,02,0.00
2012,08,23,04,03,0.00
2012,08,23,04,04,0.00
2012,08,23,04,05,0.00
2012,08,23,04,06,0.00
2012,08,23,04,07,0.00
2012,08,23,04,08,0.00
2012,08,23,04,09,0.00
2012,08,23,04,10,0.00
2012,08,23,04,11,0.00
2012,08,23,04,12,0.00
2012,08,23,04,13,0.00
2012,08,23,04,14,0.00
2012,08,23,04,15,0.00
2012,08,23,04,16,0.00
2012,08,23,04,17,0.00
2012,08,23,04,18,0.00
2012,08,23,04,19,0.00
2012,08,23,04,20,0.00
2012,08,23,04,21,0.00
2012,08,23,04,22,0.00
2012,08,23,04,23,0.00
2012,08,23,04,24,0.00
2012,08,23,04,25,0.00
2012,08,23,04,26,0.00
2012,08,23,04,27,0.00
2012,08,23,04,28,0.00
2012,08,23,04,29,0.00
2012,08,23,04,30,0.00
2012,08,23,04,31,0.00
2012,08,23,04,32,0.00
2012,08,23,04,33,0.00
2012,08,23,04,34,0.00
2012,08,23,04,35,0.00
2012,08,23,04,36,0.00
2012,08,23,04,37,0.00
2012,08,23,04,38,0.00
2012,08,23,04,39,0.00
2012,08,23,04,40,0.00
2012,08,23,04,41,0.00
2012,08,23,04,42,0.00
2012,08,23,04,43,0.00
2012,08,23,04,44,0.00
2012,08,23,04,45,0.00
2012,08,23,04,46,0.00
2012,08,23,04,47,0.00
2012,08,23,04,48,0.00
2012,08,23,04,49,0.00
2012,08,23,04,50,0.00
2012,08,23,04,51,0.00
2012,08,23,04,52,0.00
2012,08,23,04,53,0.00
2012,08,23,04,54,0.00
2012,08,23,04,55,0.00
2012,08,23,04,56,0.00
2012,08,23,04,57,0.00
2012,08,23,04,58,0.00
2012,08,23,04,59,0.00
2012,08,23,05,00,0.00
2012,08,23,05,01,0.00
2012,08,23,05,02,0.00
2012,08,23,05,03,0.00
2012,08,23,05,04,0.00
2012,08,23,05,05,0.00
2012,08,23,05,06,0.00
2012,08,23,05,07,0.00
2012,08,23,05,08,0.00
2012,08,23,05,09,0.00
2012,08,23,05,10,0.00
2012,08,23,05,11,0.00
2012,08,23,05,12,0.00
2012,08,23,05,13,0.00
2012,08,23,05,14,0.00
2012,08,23,05,15,0.00
2012,08,23,05,16,0.00
2012,08,23,05,17,0.00
2012,08,23,05,18,0.00
2012,08,23,05,19,0.00
2012,08,23,05,20,0.00
2012,08,23,05,21,0.00
2012,08,23,05,22,0.00
2012,08,23,05,23,0.00
2012,08,23,05,24,0.00
2012,08,23,05,25,0.00
2012,08,23,05,26,0.00
2012,08,23,05,27,0.00
2012,08,23,05,28,0.00
2012,08,23,05,29,0.00
2012,08,23,05,30,0.00
2012,08,23,05,31,0.00
2012,08,23,05,32,0.00
2012,08,23,05,33,0.00
2012,08,23,05,34,0.00
2012,08,23,05,35,0.00
2012,08,23,05,36,0.00
2012,08,23,05,37,0.00
2012,08,23,05,38,0.00
2012,08,23,05,39,0.00
2012,08,23,05,40,0.00
2012,08,23,05,41,0.00
2012,08,23,05,42,0.00
2012,08,23,05,43,0.00
2012,08,23,05,44,0.00
2012,08,23,05,45,0.00
2012,08,23,05,46,0.00
2012,08,23,05,47,0.00
2012,08,23,05,48,0.00
2012,08,23,05,49,0.00
2012,08,23,05,50,0.00
2012,08,23,05,51,0.00
2012,08,23,05,52,0.00
2012,08,23,05,53,0.00
2012,08,23,05,54,0.00
2012,08,23,05,55,0.00
2012,08,23,05,56,0.00
2012,08,23,05,57,0.00
2012,08,23,05,58,0.00
2012,08,23,05,59,0.00
2012,08,23,06,00,0.00
2012,08,23,06,01,0.00
2012,08,23,06,02,0.00
2012,08,23,06,03,0.00
2012,08,23,06,04,0.00
2012,08,23,06,05,0.00
2012,08,23,06,06,0.00
2012,08,23,06,07,0.00
2012,08,23,06,08,0.00
2012,08,23,06,09,0.00
2012,08,23,06,10,0.00
2012,08,23,06,11,0.00
2012,08,23,06,12,0.00
2012,08,23,06,13,0.00
2012,08,23,06,14,0.00
2012,08,23,06,15,0.00
2012,08,23,06,16,0.00
2012,08,23,06,17,0.00
2012,08,23,06,18,0.00
2012,08,23,06,19,0.00
2012,08,23,06,20,1.10
2012,08,23,06,21,5.00
2012,08,23,06,22,5.00
2012,08,23,06,23,5.00
2012,08,23,06,24,5.00
2012,08,23,06,25,5.00
2012,08,23,06,26,6.40
2012,08,23,06,27,7.00
2012,08,23,06,28,7.00
2012,08,23,06,29,7.10
2012,08,23,06,30,9.00
2012,08,23,06,31,9.00
2012,08,23,06,32,9.60
2012,08,23,06,33,11.00
2012,08,23,06,34,11.00
2012,08,23,06,35,11.60
2012,08,23,06,36,12.00
2012,08,23,06,37,12.00
2012,08,23,06,38,13.60
2012,08,23,06,39,14.00
2012,08,23,06,40,14.10
2012,08,23,06,41,16.00
2012,08,23,06,42,16.00
2012,08,23,06,43,16.60
2012,08,23,06,44,18.00
2012,08,23,06,45,18.00
2012,08,23,06,46,18.00
2012,08,23,06,47,18.60
2012,08,23,06,48,19.00
2012,08,23,06,49,19.00
2012,08,23,06,50,20.70
2012,08,23,06,51,22.80
2012,08,23,06,52,21.70
2012,08,23,06,53,27.40
2012,08,23,06,54,25.30
2012,08,23,06,55,31.20
2012,08,23,06,56,34.70
2012,08,23,06,57,30.00
2012,08,23,06,58,36.50
2012,08,23,06,59,39.30
2012,08,23,07,00,30.00
2012,08,23,07,01,26.20
2012,08,23,07,02,26.00
2012,08,23,07,03,25.00
2012,08,23,07,04,25.20
2012,08,23,07,05,27.90
2012,08,23,07,06,34.80
2012,08,23,07,07,42.60
2012,08,23,07,08,57.40
2012,08,23,07,09,56.60
2012,08,23,07,10,39.80
2012,08,23,07,11,42.10
2012,08,23,07,12,48.30
2012,08,23,07,13,59.90
2012,08,23,07,14,110.30
2012,08,23,07,15,118.50
2012,08,23,07,16,120.30
2012,08,23,07,17,121.00
2012,08,23,07,18,121.90
2012,08,23,07,19,123.00
2012,08,23,07,20,124.20
2012,08,23,07,21,126.40
2012,08,23,07,22,129.40
2012,08,23,07,23,131.80
2012,08,23,07,24,134.00
2012,08,23,07,25,135.30
2012,08,23,07,26,138.00
2012,08,23,07,27,141.90
2012,08,23,07,28,145.50
2012,08,23,07,29,149.40
2012,08,23,07,30,152.10
2012,08,23,07,31,154.90
2012,08,23,07,32,157.40
2012,08,23,07,33,159.70
2012,08,23,07,34,162.70
2012,08,23,07,35,165.20
2012,08,23,07,36,169.20
2012,08,23,07,37,171.20
2012,08,23,07,38,172.60
2012,08,23,07,39,174.80
2012,08,23,07,40,177.40
2012,08,23,07,41,180.10
2012,08,23,07,42,183.60
2012,08,23,07,43,185.80
2012,08,23,07,44,187.60
2012,08,23,07,45,189.80
2012,08,23,07,46,192.90
2012,08,23,07,47,195.60
2012,08,23,07,48,199.20
2012,08,23,07,49,201.30
2012,08,23,07,50,204.80
2012,08,23,07,51,207.40
2012,08,23,07,52,211.20
2012,08,23,07,53,213.60
2012,08,23,07,54,216.80
2012,08,23,07,55,219.60
2012,08,23,07,56,220.90
2012,08,23,07,57,225.00
2012,08,23,07,58,229.40
2012,08,23,07,59,233.00
2012,08,23,08,00,236.30
2012,08,23,08,01,238.60
2012,08,23,08,02,242.40
2012,08,23,08,03,245.10
2012,08,23,08,04,249.20
2012,08,23,08,05,253.90
2012,08,23,08,06,257.50
2012,08,23,08,07,259.80
2012,08,23,08,08,264.10
2012,08,23,08,09,267.80
2012,08,23,08,10,273.20
2012,08,23,08,11,278.90
2012,08,23,08,12,283.40
2012,08,23,08,13,287.00
2012,08,23,08,14,288.60
2012,08,23,08,15,293.20
2012,08,23,08,16,300.00
2012,08,23,08,17,307.70
2012,08,23,08,18,314.40
2012,08,23,08,19,316.40
2012,08,23,08,20,320.30
2012,08,23,08,21,322.20
2012,08,23,08,22,321.50
2012,08,23,08,23,310.40
2012,08,23,08,24,285.50
2012,08,23,08,25,258.50
2012,08,23,08,26,215.00
2012,08,23,08,27,187.70
2012,08,23,08,28,212.00
2012,08,23,08,29,205.50
2012,08,23,08,30,175.60
2012,08,23,08,31,170.30
2012,08,23,08,32,253.50
2012,08,23,08,33,287.10
2012,08,23,08,34,220.80
2012,08,23,08,35,170.90
2012,08,23,08,36,169.80
2012,08,23,08,37,240.10
2012,08,23,08,38,310.50
2012,08,23,08,39,279.20
2012,08,23,08,40,231.40
2012,08,23,08,41,150.40
2012,08,23,08,42,126.10
2012,08,23,08,43,172.00
2012,08,23,08,44,229.00
2012,08,23,08,45,365.40
2012,08,23,08,46,372.40
2012,08,23,08,47,375.10
2012,08,23,08,48,376.00
2012,08,23,08,49,374.50
2012,08,23,08,50,371.50
2012,08,23,08,51,369.20
2012,08,23,08,52,371.20
2012,08,23,08,53,374.20
2012,08,23,08,54,376.80
2012,08,23,08,55,380.30
2012,08,23,08,56,382.50
2012,08,23,08,57,385.90
2012,08,23,08,58,388.60
2012,08,23,08,59,390.00
2012,08,23,09,00,392.90
2012,08,23,09,01,396.50
2012,08,23,09,02,398.80
2012,08,23,09,03,399.20
2012,08,23,09,04,401.50
2012,08,23,09,05,404.80
2012,08,23,09,06,408.60
2012,08,23,09,07,411.10
2012,08,23,09,08,413.00
2012,08,23,09,09,414.10
2012,08,23,09,10,416.80
2012,08,23,09,11,422.20
2012,08,23,09,12,424.00
2012,08,23,09,13,426.70
2012,08,23,09,14,429.10
2012,08,23,09,15,432.30
2012,08,23,09,16,434.00
2012,08,23,09,17,434.60
2012,08,23,09,18,436.70
2012,08,23,09,19,438.50
2012,08,23,09,20,440.10
2012,08,23,09,21,441.00
2012,08,23,09,22,441.00
2012,08,23,09,23,442.70
2012,08,23,09,24,447.50
2012,08,23,09,25,453.80
2012,08,23,09,26,455.20
2012,08,23,09,27,458.00
2012,08,23,09,28,461.00
2012,08,23,09,29,461.40
2012,08,23,09,30,463.80
2012,08,23,09,31,467.70
2012,08,23,09,32,470.30
2012,08,23,09,33,472.40
2012,08,23,09,34,474.60
2012,08,23,09,35,473.30
2012,08,23,09,36,478.50
2012,08,23,09,37,483.30
2012,08,23,09,38,485.80
2012,08,23,09,39,489.30
2012,08,23,09,40,491.50
2012,08,23,09,41,494.90
2012,08,23,09,42,496.50
2012,08,23,09,43,498.30
2012,08,23,09,44,499.00
2012,08,23,09,45,500.60
2012,08,23,09,46,503.50
2012,08,23,09,47,507.80
2012,08,23,09,48,508.30
2012,08,23,09,49,510.40
2012,08,23,09,50,513.50
2012,08,23,09,51,518.10
2012,08,23,09,52,520.90
2012,08,23,09,53,522.00
2012,08,23,09,54,523.30
2012,08,23,09,55,525.50
2012,08,23,09,56,530.00
2012,08,23,09,57,531.00
2012,08,23,09,58,534.00
2012,08,23,09,59,536.30
2012,08,23,10,00,538.60
2012,08,23,10,01,541.00
2012,08,23,10,02,541.80
2012,08,23,10,03,544.00
2012,08,23,10,04,546.10
2012,08,23,10,05,550.20
2012,08,23,10,06,553.50
2012,08,23,10,07,554.00
2012,08,23,10,08,556.50
2012,08,23,10,09,559.00
2012,08,23,10,10,561.20
2012,08,23,10,11,563.20
2012,08,23,10,12,564.60
2012,08,23,10,13,566.70
2012,08,23,10,14,569.30
2012,08,23,10,15,571.00
2012,08,23,10,16,573.40
2012,08,23,10,17,577.10
2012,08,23,10,18,578.00
2012,08,23,10,19,581.50
2012,08,23,10,20,584.00
2012,08,23,10,21,585.60
2012,08,23,10,22,589.40
2012,08,23,10,23,591.30
2012,08,23,10,24,592.00
2012,08,23,10,25,592.90
2012,08,23,10,26,596.20
2012,08,23,10,27,598.70
2012,08,23,10,28,601.80
2012,08,23,10,29,603.00
2012,08,23,10,30,605.50
2012,08,23,10,31,608.00
2012,08,23,10,32,610.00
2012,08,23,10,33,611.00
2012,08,23,10,34,615.60
2012,08,23,10,35,617.80
2012,08,23,10,36,619.90
2012,08,23,10,37,621.00
2012,08,23,10,38,621.00
2012,08,23,10,39,624.50
2012,08,23,10,40,626.00
2012,08,23,10,41,627.70
2012,08,23,10,42,629.00
2012,08,23,10,43,631.60
2012,08,23,10,44,635.00
2012,08,23,10,45,635.90
2012,08,23,10,46,638.80
2012,08,23,10,47,640.90
2012,08,23,10,48,643.70
2012,08,23,10,49,643.70
2012,08,23,10,50,644.40
2012,08,23,10,51,648.20
2012,08,23,10,52,649.00
2012,08,23,10,53,652.00
2012,08,23,10,54,654.30
2012,08,23,10,55,656.20
2012,08,23,10,56,658.20
2012,08,23,10,57,661.00
2012,08,23,10,58,661.90
2012,08,23,10,59,663.50
2012,08,23,11,00,666.60
2012,08,23,11,01,669.40
2012,08,23,11,02,670.80
2012,08,23,11,03,671.00
2012,08,23,11,04,677.00
2012,08,23,11,05,677.30
2012,08,23,11,06,680.20
2012,08,23,11,07,685.60
2012,08,23,11,08,690.60
2012,08,23,11,09,695.40
2012,08,23,11,10,699.10
2012,08,23,11,11,703.20
2012,08,23,11,12,709.90
2012,08,23,11,13,708.80
2012,08,23,11,14,708.00
2012,08,23,11,15,688.80
2012,08,23,11,16,716.20
2012,08,23,11,17,689.00
2012,08,23,11,18,633.20
2012,08,23,11,19,532.60
2012,08,23,11,20,579.20
2012,08,23,11,21,633.20
2012,08,23,11,22,693.90
2012,08,23,11,23,670.70
2012,08,23,11,24,671.20
2012,08,23,11,25,675.00
2012,08,23,11,26,677.40
2012,08,23,11,27,734.00
2012,08,23,11,28,768.40
2012,08,23,11,29,755.60
2012,08,23,11,30,722.00
2012,08,23,11,31,595.50
2012,08,23,11,32,441.00
2012,08,23,11,33,441.00
2012,08,23,11,34,441.00
2012,08,23,11,35,441.00
2012,08,23,11,36,789.10
2012,08,23,11,37,821.20
2012,08,23,11,38,764.50
2012,08,23,11,39,773.00
2012,08,23,11,40,773.00
2012,08,23,11,41,773.00
2012,08,23,11,42,486.00
2012,08,23,11,43,194.90
2012,08,23,11,44,192.00
2012,08,23,11,45,565.80
2012,08,23,11,46,726.00
2012,08,23,11,47,406.60
2012,08,23,11,48,390.40
2012,08,23,11,49,786.40
2012,08,23,11,50,734.70
2012,08,23,11,51,748.30
2012,08,23,11,52,758.00
2012,08,23,11,53,786.00
2012,08,23,11,54,786.00
2012,08,23,11,55,783.50
2012,08,23,11,56,787.10
2012,08,23,11,57,789.00
2012,08,23,11,58,789.00
2012,08,23,11,59,776.10
2012,08,23,12,00,757.00
2012,08,23,12,01,753.90
2012,08,23,12,02,771.90
2012,08,23,12,03,783.60
2012,08,23,12,04,774.00
2012,08,23,12,05,775.00
2012,08,23,12,06,777.50
2012,08,23,12,07,777.50
2012,08,23,12,08,779.50
2012,08,23,12,09,783.60
2012,08,23,12,10,789.20
2012,08,23,12,11,799.30
2012,08,23,12,12,808.60
2012,08,23,12,13,817.80
2012,08,23,12,14,826.00
2012,08,23,12,15,826.00
2012,08,23,12,16,817.30
2012,08,23,12,17,831.60
2012,08,23,12,18,844.00
2012,08,23,12,19,628.70
2012,08,23,12,20,578.00
2012,08,23,12,21,581.50
2012,08,23,12,22,666.20
2012,08,23,12,23,739.90
2012,08,23,12,24,774.50
2012,08,23,12,25,782.50
2012,08,23,12,26,776.40
2012,08,23,12,27,780.00
2012,08,23,12,28,801.30
2012,08,23,12,29,745.00
2012,08,23,12,30,737.40
2012,08,23,12,31,761.50
2012,08,23,12,32,784.50
2012,08,23,12,33,815.30
2012,08,23,12,34,823.00
2012,08,23,12,35,823.00
2012,08,23,12,36,823.00
2012,08,23,12,37,823.00
2012,08,23,12,38,823.00
2012,08,23,12,39,823.00
2012,08,23,12,40,604.20
2012,08,23,12,41,526.00
2012,08,23,12,42,526.00
2012,08,23,12,43,414.40
2012,08,23,12,44,417.20
2012,08,23,12,45,427.40
2012,08,23,12,46,483.00
2012,08,23,12,47,526.80
2012,08,23,12,48,598.00
2012,08,23,12,49,598.00
2012,08,23,12,50,553.20
2012,08,23,12,51,472.60
2012,08,23,12,52,428.90
2012,08,23,12,53,450.50
2012,08,23,12,54,518.80
2012,08,23,12,55,496.60
2012,08,23,12,56,458.80
2012,08,23,12,57,473.00
2012,08,23,12,58,485.00
2012,08,23,12,59,508.70
2012,08,23,13,00,543.90
2012,08,23,13,01,506.20
2012,08,23,13,02,493.00
2012,08,23,13,03,583.50
2012,08,23,13,04,599.00
2012,08,23,13,05,468.90
2012,08,23,13,06,462.00
2012,08,23,13,07,493.40
2012,08,23,13,08,594.00
2012,08,23,13,09,571.10
2012,08,23,13,10,534.00
2012,08,23,13,11,895.90
2012,08,23,13,12,1192.00
2012,08,23,13,13,716.00
2012,08,23,13,14,493.60
2012,08,23,13,15,489.00
2012,08,23,13,16,489.00
2012,08,23,13,17,489.00
2012,08,23,13,18,489.00
2012,08,23,13,19,489.00
2012,08,23,13,20,665.80
2012,08,23,13,21,953.00
2012,08,23,13,22,953.00
2012,08,23,13,23,953.00
2012,08,23,13,24,953.00
2012,08,23,13,25,846.80
2012,08,23,13,26,828.00
2012,08,23,13,27,826.00
2012,08,23,13,28,792.90
2012,08,23,13,29,836.60
2012,08,23,13,30,835.00
2012,08,23,13,31,829.40
2012,08,23,13,32,801.50
2012,08,23,13,33,799.60
2012,08,23,13,34,814.00
2012,08,23,13,35,816.10
2012,08,23,13,36,817.00
2012,08,23,13,37,823.00
2012,08,23,13,38,830.30
2012,08,23,13,39,841.60
2012,08,23,13,40,826.20
2012,08,23,13,41,803.60
2012,08,23,13,42,861.00
2012,08,23,13,43,861.00
2012,08,23,13,44,861.00
2012,08,23,13,45,763.20
2012,08,23,13,46,744.90
2012,08,23,13,47,840.30
2012,08,23,13,48,873.20
2012,08,23,13,49,865.50
2012,08,23,13,50,858.70
2012,08,23,13,51,827.60
2012,08,23,13,52,849.00
2012,08,23,13,53,856.80
2012,08,23,13,54,854.80
2012,08,23,13,55,862.50
2012,08,23,13,56,810.20
2012,08,23,13,57,777.00
2012,08,23,13,58,777.00
2012,08,23,13,59,873.30
2012,08,23,14,00,877.80
2012,08,23,14,01,751.30
2012,08,23,14,02,708.00
2012,08,23,14,03,708.00
2012,08,23,14,04,708.00
2012,08,23,14,05,644.70
2012,08,23,14,06,575.00
2012,08,23,14,07,575.00
2012,08,23,14,08,575.00
2012,08,23,14,09,575.00
2012,08,23,14,10,575.00
2012,08,23,14,11,581.20
2012,08,23,14,12,698.00
2012,08,23,14,13,698.00
2012,08,23,14,14,698.00
2012,08,23,14,15,698.00
2012,08,23,14,16,698.00
2012,08,23,14,17,698.00
2012,08,23,14,18,698.00
2012,08,23,14,19,698.00
2012,08,23,14,20,789.20
2012,08,23,14,21,843.50
2012,08,23,14,22,867.00
2012,08,23,14,23,868.00
2012,08,23,14,24,868.00
2012,08,23,14,25,868.00
2012,08,23,14,26,878.00
2012,08,23,14,27,889.00
2012,08,23,14,28,884.00
2012,08,23,14,29,884.00
2012,08,23,14,30,884.00
2012,08,23,14,31,884.00
2012,08,23,14,32,884.00
2012,08,23,14,33,884.00
2012,08,23,14,34,884.00
2012,08,23,14,35,739.50
2012,08,23,14,36,301.80
2012,08,23,14,37,294.00
2012,08,23,14,38,453.50
2012,08,23,14,39,613.00
2012,08,23,14,40,613.00
2012,08,23,14,41,466.80
2012,08,23,14,42,418.00
2012,08,23,14,43,614.30
2012,08,23,14,44,662.60
2012,08,23,14,45,615.00
2012,08,23,14,46,641.80
2012,08,23,14,47,744.80
2012,08,23,14,48,731.80
2012,08,23,14,49,715.70
2012,08,23,14,50,712.90
2012,08,23,14,51,718.50
2012,08,23,14,52,714.80
2012,08,23,14,53,710.80
2012,08,23,14,54,707.50
2012,08,23,14,55,703.00
2012,08,23,14,56,701.00
2012,08,23,14,57,700.40
2012,08,23,14,58,698.60
2012,08,23,14,59,700.00
2012,08,23,15,00,698.20
2012,08,23,15,01,694.30
2012,08,23,15,02,691.70
2012,08,23,15,03,689.50
2012,08,23,15,04,687.30
2012,08,23,15,05,686.10
2012,08,23,15,06,686.00
2012,08,23,15,07,685.80
2012,08,23,15,08,683.60
2012,08,23,15,09,681.10
2012,08,23,15,10,679.00
2012,08,23,15,11,678.10
2012,08,23,15,12,675.90
2012,08,23,15,13,673.70
2012,08,23,15,14,673.00
2012,08,23,15,15,670.60
2012,08,23,15,16,670.00
2012,08,23,15,17,667.90
2012,08,23,15,18,663.90
2012,08,23,15,19,662.60
2012,08,23,15,20,660.30
2012,08,23,15,21,659.00
2012,08,23,15,22,657.60
2012,08,23,15,23,654.80
2012,08,23,15,24,652.70
2012,08,23,15,25,652.00
2012,08,23,15,26,650.40
2012,08,23,15,27,649.20
2012,08,23,15,28,648.80
2012,08,23,15,29,645.00
2012,08,23,15,30,644.60
2012,08,23,15,31,642.70
2012,08,23,15,32,641.20
2012,08,23,15,33,640.00
2012,08,23,15,34,638.80
2012,08,23,15,35,636.70
2012,08,23,15,36,633.80
2012,08,23,15,37,633.00
2012,08,23,15,38,629.50
2012,08,23,15,39,629.00
2012,08,23,15,40,628.60
2012,08,23,15,41,625.50
2012,08,23,15,42,624.00
2012,08,23,15,43,622.90
2012,08,23,15,44,620.10
2012,08,23,15,45,617.90
2012,08,23,15,46,614.50
2012,08,23,15,47,612.30
2012,08,23,15,48,610.30
2012,08,23,15,49,608.30
2012,08,23,15,50,606.00
2012,08,23,15,51,604.70
2012,08,23,15,52,602.10
2012,08,23,15,53,598.70
2012,08,23,15,54,597.20
2012,08,23,15,55,596.00
2012,08,23,15,56,594.90
2012,08,23,15,57,592.10
2012,08,23,15,58,589.50
2012,08,23,15,59,589.00
2012,08,23,16,00,589.00
2012,08,23,16,01,584.20
2012,08,23,16,02,582.00
2012,08,23,16,03,581.50
2012,08,23,16,04,579.00
2012,08,23,16,05,577.00
2012,08,23,16,06,577.00
2012,08,23,16,07,573.20
2012,08,23,16,08,570.00
2012,08,23,16,09,568.50
2012,08,23,16,10,566.30
2012,08,23,16,11,564.20
2012,08,23,16,12,561.10
2012,08,23,16,13,560.70
2012,08,23,16,14,558.00
2012,08,23,16,15,554.70
2012,08,23,16,16,553.20
2012,08,23,16,17,551.10
2012,08,23,16,18,549.00
2012,08,23,16,19,547.30
2012,08,23,16,20,545.50
2012,08,23,16,21,541.60
2012,08,23,16,22,540.10
2012,08,23,16,23,535.90
2012,08,23,16,24,533.80
2012,08,23,16,25,532.50
2012,08,23,16,26,529.80
2012,08,23,16,27,527.00
2012,08,23,16,28,525.60
2012,08,23,16,29,522.80
2012,08,23,16,30,520.80
2012,08,23,16,31,519.20
2012,08,23,16,32,517.30
2012,08,23,16,33,515.30
2012,08,23,16,34,512.10
2012,08,23,16,35,511.70
2012,08,23,16,36,509.00
2012,08,23,16,37,505.10
2012,08,23,16,38,502.30
2012,08,23,16,39,499.10
2012,08,23,16,40,495.30
2012,08,23,16,41,492.80
2012,08,23,16,42,492.00
2012,08,23,16,43,489.50
2012,08,23,16,44,487.30
2012,08,23,16,45,483.10
2012,08,23,16,46,481.70
2012,08,23,16,47,479.50
2012,08,23,16,48,477.00
2012,08,23,16,49,474.30
2012,08,23,16,50,471.10
2012,08,23,16,51,467.30
2012,08,23,16,52,464.80
2012,08,23,16,53,462.50
2012,08,23,16,54,461.20
2012,08,23,16,55,457.60
2012,08,23,16,56,455.00
2012,08,23,16,57,454.00
2012,08,23,16,58,453.00
2012,08,23,16,59,449.30
2012,08,23,17,00,447.30
2012,08,23,17,01,444.60
2012,08,23,17,02,441.90
2012,08,23,17,03,439.10
2012,08,23,17,04,435.00
2012,08,23,17,05,432.30
2012,08,23,17,06,431.10
2012,08,23,17,07,427.10
2012,08,23,17,08,424.90
2012,08,23,17,09,423.60
2012,08,23,17,10,420.80